KK6LVQ-13 Weather Reports


time (UTC)temp
C
wind
direction
speed
KPH
gust
KPH
rain 1hr
cm
rain 24hr
cm
rain mn
cm
humidity
%
barometer
mb
20260505201343 12 346 1.6 1.6 0.00 0.00 0.00 92 1021.6
20260505200841 12 13 3.2 3.2 0.00 0.00 0.00 92 1021.8
20260505200338 12 78 0.0 0.0 0.00 0.00 0.00 92 1022.0
20260505195833 12 249 3.2 3.2 0.00 0.00 0.00 92 1021.5
20260505195331 12 225 1.6 1.6 0.00 0.00 0.00 92 1021.9
20260505194828 12 337 1.6 1.6 0.00 0.00 0.00 91 1021.9
20260505194325 12 254 0.0 0.0 0.00 0.00 0.00 91 1021.7
20260505193820 12 346 1.6 3.2 0.00 0.00 0.00 91 1021.7
20260505193318 12 346 3.2 3.2 0.00 0.00 0.00 90 1022.0
20260505192816 12 38 0.0 1.6 0.00 0.00 0.00 90 1021.8
20260505192314 12 338 3.2 3.2 0.00 0.00 0.00 89 1021.6
20260505191812 12 257 1.6 1.6 0.00 0.00 0.00 89 1021.8
20260505191309 12 13 0.0 0.0 0.00 0.00 0.00 89 1021.8
20260505190806 12 307 1.6 1.6 0.00 0.00 0.00 89 1021.9
20260505190301 12 287 3.2 3.2 0.00 0.00 0.00 88 1021.8
20260505185757 12 319 1.6 1.6 0.00 0.00 0.00 88 1021.7
20260505185254 12 354 1.6 1.6 0.00 0.00 0.00 88 1021.9
20260505184750 12 344 1.6 1.6 0.00 0.00 0.00 87 1021.6
20260505184248 12 304 4.8 8.0 0.00 0.00 0.00 87 1021.7
20260505183744 12 18 1.6 1.6 0.00 0.00 0.00 87 1021.7
20260505183241 12 311 3.2 3.2 0.00 0.00 0.00 86 1021.8
20260505182738 12 25 1.6 1.6 0.00 0.00 0.00 86 1021.7
20260505182235 12 54 3.2 3.2 0.00 0.00 0.00 86 1021.7
20260505181731 12 288 3.2 3.2 0.00 0.00 0.00 85 1021.6
20260505181229 12 339 1.6 1.6 0.00 0.00 0.00 85 1021.6
20260505180725 12 308 3.2 3.2 0.00 0.00 0.00 85 1021.5
20260505180222 12 321 4.8 4.8 0.00 0.00 0.00 84 1021.4
20260505175718 12 60 0.0 0.0 0.00 0.00 0.00 84 1021.4
20260505175215 12 24 3.2 3.2 0.00 0.00 0.00 84 1021.3
20260505174711 12 318 4.8 4.8 0.00 0.00 0.00 84 1021.2
20260505174208 12 339 1.6 1.6 0.00 0.00 0.00 85 1021.3
20260505173704 12 9 4.8 4.8 0.00 0.00 0.00 85 1021.3
20260505173201 12 36 0.0 1.6 0.00 0.00 0.00 85 1021.1
20260505172658 12 343 4.8 4.8 0.00 0.00 0.00 86 1021.3
20260505172155 12 292 3.2 4.8 0.00 0.00 0.00 85 1021.3
20260505171655 12 44 0.0 0.0 0.00 0.00 0.00 85 1021.1
20260505171153 12 13 3.2 3.2 0.00 0.00 0.00 86 1021.1
20260505170650 12 322 3.2 3.2 0.00 0.00 0.00 85 1021.0
20260505170147 12 340 3.2 3.2 0.00 0.00 0.00 85 1020.9
20260505165647 12 12 1.6 3.2 0.00 0.00 0.00 85 1021.1
20260505165143 12 25 0.0 1.6 0.00 0.00 0.00 85 1020.8
20260505164639 12 313 3.2 3.2 0.00 0.00 0.00 85 1021.0
20260505164136 12 340 3.2 3.2 0.00 0.00 0.00 85 1021.1
20260505163634 12 290 3.2 3.2 0.00 0.00 0.00 85 1020.9
20260505163132 12 41 0.0 1.6 0.00 0.00 0.00 86 1021.0
20260505162629 12 294 4.8 8.0 0.00 0.00 0.00 87 1020.9
20260505162127 11 312 6.4 9.7 0.00 0.00 0.00 87 1021.0
20260505161624 11 269 3.2 3.2 0.00 0.00 0.00 88 1021.2
20260505161121 11 307 3.2 3.2 0.00 0.00 0.00 88 1020.9
20260505160619 11 289 1.6 3.2 0.00 0.00 0.00 89 1021.0
20260505160116 11 342 4.8 4.8 0.00 0.00 0.00 89 1021.0
20260505153055 10 339 0.0 0.0 0.00 0.00 0.00 94 1020.8
20260505152552 10 319 0.0 0.0 0.00 0.00 0.00 94 1020.7
20260505152047 10 334 0.0 0.0 0.00 0.00 0.00 95 1020.8
20260505151542 10 351 0.0 0.0 0.00 0.00 0.00 95 1020.7
20260505151040 10 303 0.0 0.0 0.00 0.00 0.00 95 1020.5
20260505150536 10 272 0.0 0.0 0.00 0.00 0.00 95 1020.8
20260505140502 9 156 0.0 0.0 0.00 0.00 0.00 98 1020.2
20260505124915 8 70 0.0 0.0 0.00 0.00 0.00 97 1020.0
20260505124412 8 70 0.0 0.0 0.00 0.00 0.00 97 1020.1
20260505123908 8 66 0.0 0.0 0.00 0.00 0.00 97 1019.9
20260505123405 8 64 0.0 0.0 0.00 0.00 0.00 97 1020.0
20260505122900 8 64 0.0 0.0 0.00 0.00 0.00 97 1020.0
20260505122358 8 62 0.0 0.0 0.00 0.00 0.00 97 1020.1
20260505121854 8 59 0.0 0.0 0.00 0.00 0.00 97 1020.0
20260505121352 8 59 0.0 0.0 0.00 0.00 0.00 97 1020.2
20260505120847 8 59 0.0 0.0 0.00 0.00 0.00 97 1020.1
20260505120344 8 347 0.0 0.0 0.00 0.00 0.00 97 1020.0
20260505115843 8 353 0.0 0.0 0.00 0.00 0.00 96 1020.1
20260505115340 8 75 0.0 0.0 0.00 0.00 0.00 96 1019.9
20260505114838 8 75 0.0 0.0 0.00 0.00 0.00 96 1020.0
20260505114334 8 75 0.0 0.0 0.00 0.00 0.00 96 1019.8
20260505113830 8 351 0.0 0.0 0.00 0.00 0.00 96 1020.1
20260505113327 8 355 0.0 0.0 0.00 0.00 0.00 96 1020.0
20260505112823 8 52 0.0 0.0 0.00 0.00 0.00 96 1020.0
20260505112320 8 50 0.0 0.0 0.00 0.00 0.00 96 1020.1
20260505111816 8 49 0.0 0.0 0.00 0.00 0.00 95 1019.9
20260505111312 8 50 0.0 0.0 0.00 0.00 0.00 95 1020.0
20260505110808 8 50 0.0 0.0 0.00 0.00 0.00 95 1019.9
20260505110306 9 48 0.0 0.0 0.00 0.00 0.00 95 1020.0
20260505101739 9 42 0.0 0.0 0.00 0.00 0.00 94 1020.0
20260505101235 9 41 0.0 0.0 0.00 0.00 0.00 94 1020.1
20260505100732 9 41 0.0 0.0 0.00 0.00 0.00 94 1020.0
20260505100229 9 48 0.0 0.0 0.00 0.00 0.00 94 1020.0
20260505095724 9 55 0.0 0.0 0.00 0.00 0.00 94 1020.2
20260505095223 9 56 0.0 0.0 0.00 0.00 0.00 93 1020.0
20260505094718 9 55 0.0 0.0 0.00 0.00 0.00 93 1020.1
20260505094215 9 46 0.0 0.0 0.00 0.00 0.00 92 1020.2
20260505093711 10 46 0.0 0.0 0.00 0.00 0.00 92 1019.9
20260505093209 10 65 0.0 0.0 0.00 0.00 0.00 91 1020.1
20260505092705 10 71 0.0 0.0 0.00 0.00 0.00 92 1020.1
20260505092204 10 76 0.0 0.0 0.00 0.00 0.00 92 1020.2
20260505091700 10 34 0.0 0.0 0.00 0.00 0.00 91 1020.2
20260505091159 10 33 0.0 0.0 0.00 0.00 0.00 92 1020.4
20260505090656 10 13 0.0 0.0 0.00 0.00 0.00 92 1020.4
20260505090154 10 10 0.0 0.0 0.00 0.00 0.00 92 1020.2
20260505085651 10 324 0.0 0.0 0.00 0.00 0.00 92 1020.3
20260505085149 10 19 0.0 0.0 0.00 0.00 0.00 92 1020.6
20260505084646 10 17 0.0 0.0 0.00 0.00 0.00 93 1020.6
20260505084145 9 33 0.0 0.0 0.00 0.00 0.00 93 1020.5
20260505083642 10 34 0.0 0.0 0.00 0.00 0.00 94 1020.4
20260505083138 10 39 0.0 0.0 0.00 0.00 0.00 94 1020.4
20260505082634 9 40 0.0 0.0 0.00 0.00 0.00 95 1020.6
20260505082131 10 96 0.0 0.0 0.00 0.00 0.00 95 1020.4
20260505081627 10 97 0.0 0.0 0.00 0.00 0.00 95 1020.5
20260505081125 9 267 0.0 0.0 0.00 0.00 0.00 96 1020.6
20260505080622 9 82 0.0 0.0 0.00 0.00 0.00 96 1020.7
20260505080118 9 248 0.0 0.0 0.00 0.00 0.00 96 1020.6
20260505075614 9 86 0.0 0.0 0.00 0.00 0.00 96 1020.6
20260505075111 9 25 0.0 0.0 0.00 0.00 0.00 96 1020.6
20260505074608 9 60 0.0 0.0 0.00 0.00 0.00 96 1020.6
20260505074105 9 334 0.0 0.0 0.00 0.00 0.00 96 1020.5
20260505073602 9 11 0.0 0.0 0.00 0.00 0.00 96 1020.5
20260505073101 9 12 0.0 0.0 0.00 0.00 0.00 96 1020.5
20260505072556 9 12 0.0 0.0 0.00 0.00 0.00 96 1020.7
20260505072053 9 12 0.0 0.0 0.00 0.00 0.00 96 1020.4
20260505071548 9 11 0.0 0.0 0.00 0.00 0.00 96 1020.3
20260505071046 9 11 0.0 0.0 0.00 0.00 0.00 95 1020.0
20260505070543 9 11 0.0 0.0 0.00 0.00 0.00 95 1020.2
20260505070039 9 11 0.0 0.0 0.00 0.00 0.00 95 1020.4
20260505065535 10 11 0.0 0.0 0.00 0.00 0.00 95 1020.6
20260505065032 10 10 0.0 0.0 0.00 0.00 0.00 94 1020.4
20260505064529 10 10 0.0 0.0 0.00 0.00 0.00 94 1020.3
20260505064027 10 10 0.0 0.0 0.00 0.00 0.00 94 1020.3
20260505063524 10 10 0.0 0.0 0.00 0.00 0.00 94 1020.2
20260505063020 10 11 0.0 0.0 0.00 0.00 0.00 94 1020.1
20260505062517 10 10 0.0 0.0 0.00 0.00 0.00 94 1020.1
20260505062014 10 10 0.0 0.0 0.00 0.00 0.00 93 1020.3
20260505061512 10 10 0.0 0.0 0.00 0.00 0.00 93 1020.1
20260505061010 10 10 0.0 0.0 0.00 0.00 0.00 93 1020.1
20260505060507 10 10 0.0 0.0 0.00 0.00 0.00 93 1019.9
20260505060003 10 11 0.0 0.0 0.00 0.00 0.00 93 1020.3
20260505055458 10 10 0.0 0.0 0.00 0.00 0.00 92 1020.3
20260505054955 10 10 0.0 0.0 0.00 0.00 0.00 92 1020.2
20260505054453 10 61 0.0 0.0 0.00 0.00 0.00 91 1020.4
20260505053951 10 68 0.0 0.0 0.00 0.00 0.00 91 1020.4
20260505053448 11 94 0.0 0.0 0.00 0.00 0.00 91 1020.6
20260505052944 11 78 0.0 0.0 0.00 0.00 0.00 91 1020.5
20260505052442 11 13 0.0 1.6 0.00 0.00 0.00 91 1020.8
20260505051938 11 0 1.6 1.6 0.00 0.00 0.00 91 1020.6
20260505051435 11 340 1.6 3.2 0.00 0.00 0.00 91 1020.6
20260505050933 11 8 1.6 1.6 0.00 0.00 0.00 91 1020.6
20260505050432 11 276 0.0 0.0 0.00 0.00 0.00 91 1020.6
20260505041359 11 67 1.6 1.6 0.00 0.00 0.00 87 1020.1
20260505040856 11 279 1.6 1.6 0.00 0.00 0.00 87 1020.3
20260505040354 11 349 1.6 3.2 0.00 0.00 0.00 86 1020.1
20260505035850 11 38 0.0 1.6 0.00 0.00 0.00 85 1020.1
20260505035346 11 38 1.6 1.6 0.00 0.00 0.00 84 1020.0
20260505034844 11 9 1.6 1.6 0.00 0.00 0.00 84 1019.9
20260505034340 11 6 0.0 0.0 0.00 0.00 0.00 84 1019.7
20260505033837 11 38 0.0 0.0 0.00 0.00 0.00 84 1019.6
20260505033334 11 32 1.6 1.6 0.00 0.00 0.00 83 1019.5
20260505032833 12 348 3.2 3.2 0.00 0.00 0.00 83 1019.5
20260505032328 12 0 1.6 1.6 0.00 0.00 0.00 82 1019.4
20260505031826 12 41 1.6 1.6 0.00 0.00 0.00 82 1019.7
20260505031322 12 31 0.0 0.0 0.00 0.00 0.00 81 1019.6
20260505030820 12 48 1.6 1.6 0.00 0.00 0.00 81 1019.6
20260505030316 12 298 3.2 3.2 0.00 0.00 0.00 81 1019.6
20260505025811 12 343 3.2 3.2 0.00 0.00 0.00 80 1019.7
20260505025309 12 3 1.6 1.6 0.00 0.00 0.00 80 1019.5
20260505024807 12 343 4.8 4.8 0.00 0.00 0.00 79 1019.4
20260505024304 12 341 3.2 3.2 0.00 0.00 0.00 79 1019.5
20260505023802 12 340 3.2 3.2 0.00 0.00 0.00 78 1019.5
20260505023258 12 293 8.0 9.7 0.00 0.00 0.00 78 1019.7
20260505022755 12 294 8.0 11.3 0.00 0.00 0.00 78 1019.4
20260505022253 13 338 8.0 9.7 0.00 0.00 0.00 78 1019.5
20260505021749 13 320 8.0 9.7 0.00 0.00 0.00 78 1019.4
20260505021246 13 48 0.0 1.6 0.00 0.00 0.00 78 1019.3
20260505020742 13 314 6.4 8.0 0.00 0.00 0.00 77 1019.4
20260505020237 13 352 3.2 4.8 0.00 0.00 0.00 76 1019.3
20260505015735 13 288 3.2 3.2 0.00 0.00 0.00 76 1019.3
20260505015232 13 32 3.2 4.8 0.00 0.00 0.00 75 1019.2
20260505014729 14 333 1.6 3.2 0.00 0.00 0.00 74 1019.5
20260505014226 15 267 3.2 3.2 0.00 0.00 0.00 73 1019.3
20260505013722 15 236 4.8 4.8 0.00 0.00 0.00 70 1019.7
20260505013220 15 341 1.6 3.2 0.00 0.00 0.00 69 1019.4
20260505012718 15 212 1.6 1.6 0.00 0.00 0.00 70 1019.6
20260505012215 15 266 4.8 4.8 0.00 0.00 0.00 69 1019.7
20260505011710 16 252 6.4 8.0 0.00 0.00 0.00 69 1019.5
20260505011208 16 150 3.2 3.2 0.00 0.00 0.00 67 1019.8
20260505010703 15 290 4.8 4.8 0.00 0.00 0.00 70 1019.6
20260505010200 16 315 1.6 1.6 0.00 0.00 0.00 68 1019.8
20260505005656 15 345 4.8 4.8 0.00 0.00 0.00 72 1019.8
20260505005154 15 302 1.6 3.2 0.00 0.00 0.00 71 1019.8
20260505004651 15 258 3.2 3.2 0.00 0.00 0.00 72 1019.8
20260505004147 15 341 6.4 8.0 0.00 0.00 0.00 73 1019.9
20260505003644 15 312 6.4 8.0 0.00 0.00 0.00 72 1019.9
20260505003142 15 304 6.4 8.0 0.00 0.00 0.00 71 1019.8
20260505002638 15 314 4.8 8.0 0.00 0.00 0.00 70 1019.7
20260505002136 15 350 6.4 8.0 0.00 0.00 0.00 70 1019.9
20260505001633 15 333 4.8 4.8 0.00 0.00 0.00 70 1019.7
20260505001130 16 269 6.4 8.0 0.00 0.00 0.00 69 1019.8
20260505000627 15 222 3.2 3.2 0.00 0.00 0.00 71 1019.9
20260505000125 16 349 8.0 9.7 0.00 0.00 0.00 71 1019.7
20260504235621 16 274 8.0 9.7 0.00 0.00 0.00 71 1019.8
20260504235118 15 165 8.0 11.3 0.00 0.00 0.00 73 1020.1
20260504234615 15 296 8.0 9.7 0.00 0.00 0.00 72 1020.1
20260504234113 15 322 9.7 11.3 0.00 0.00 0.00 74 1020.0
20260504233608 15 339 4.8 4.8 0.00 0.00 0.00 74 1020.1
20260504233104 15 340 4.8 4.8 0.00 0.00 0.00 75 1020.2
20260504232602 15 282 8.0 11.3 0.00 0.00 0.00 77 1019.9
20260504232059 15 317 11.3 12.9 0.00 0.00 0.00 76 1020.0
20260504231555 15 326 6.4 8.0 0.00 0.00 0.00 75 1020.1
20260504231051 15 287 4.8 4.8 0.00 0.00 0.00 75 1020.3
20260504230548 14 319 4.8 8.0 0.00 0.00 0.00 76 1020.2
20260504230047 14 298 9.7 11.3 0.00 0.00 0.00 75 1020.2
20260504225544 14 282 4.8 8.0 0.00 0.00 0.00 76 1020.2
20260504225041 15 344 11.3 12.9 0.00 0.00 0.00 75 1020.0
20260504224537 15 153 1.6 3.2 0.00 0.00 0.00 74 1020.3
20260504224035 15 286 6.4 8.0 0.00 0.00 0.00 75 1020.3
20260504223531 14 279 6.4 9.7 0.00 0.00 0.00 76 1020.3
20260504223027 13 313 4.8 4.8 0.00 0.00 0.00 77 1020.3
20260504222524 13 296 4.8 4.8 0.00 0.00 0.00 77 1020.4
20260504222022 13 263 12.9 16.1 0.00 0.00 0.00 76 1020.4
20260504221519 13 323 8.0 11.3 0.00 0.00 0.00 77 1020.4
20260504221015 13 297 8.0 12.9 0.00 0.00 0.00 79 1020.7
20260504220512 13 337 8.0 11.3 0.00 0.00 0.00 78 1020.4
20260504220009 13 241 4.8 4.8 0.00 0.00 0.00 79 1020.6
20260504215505 13 219 1.6 3.2 0.00 0.00 0.00 80 1020.7
20260504215003 13 310 4.8 4.8 0.00 0.00 0.00 79 1020.7
20260504214459 14 345 6.4 8.0 0.00 0.00 0.00 78 1020.7
20260504213955 14 4 4.8 4.8 0.00 0.00 0.00 77 1020.4
20260504213451 14 312 4.8 4.8 0.00 0.00 0.00 76 1020.6
20260504212949 15 340 4.8 4.8 0.00 0.00 0.00 75 1020.8
20260504212444 15 316 3.2 3.2 0.00 0.00 0.00 74 1021.0
20260504211942 15 343 4.8 8.0 0.00 0.00 0.00 74 1020.6
20260504211438 15 351 3.2 3.2 0.00 0.00 0.00 75 1020.8
20260504210936 15 249 4.8 4.8 0.00 0.00 0.00 75 1020.8
20260504210433 15 345 4.8 4.8 0.00 0.00 0.00 76 1020.7
20260504205930 15 334 6.4 8.0 0.00 0.00 0.00 76 1020.8
20260504205427 14 205 3.2 3.2 0.00 0.00 0.00 74 1020.8
20260504204926 14 237 3.2 3.2 0.00 0.00 0.00 75 1020.9
20260504204424 14 206 3.2 3.2 0.00 0.00 0.00 76 1021.0
20260504203923 14 267 4.8 4.8 0.00 0.00 0.00 73 1020.8
20260504203420 14 317 3.2 3.2 0.00 0.00 0.00 74 1020.7
20260504202915 14 107 3.2 3.2 0.00 0.00 0.00 74 1021.0
20260504202412 15 245 8.0 11.3 0.00 0.00 0.00 72 1020.8
20260504201909 14 226 3.2 4.8 0.00 0.00 0.00 74 1021.0